This demonstration page uses our WeatherBlox Daily Observations layout. Learn more.

Left ArrowRight Arrow

30.00354, -91.81873

Hourly Observations for September 26, 2022

Temp ( °F °C ) Dew Point ( °F °C ) Humidity (%) Winds ( mph kmh ) Pressure ( in mb ) Visibility ( mi km ) Precip ( " mm )
12:53 am 00:53 Clear 74 23.3 70 21.1 87 87 Calm 29.92 1013 10 16 0.01 0.13
1:53 am 01:53 Clear 75 23.9 71 21.7 88 88 WNW 5 7 29.92 1013 8 13 0.00 0.00
2:53 am 02:53 Clear 74 23.3 70 21.1 87 87 Calm 29.91 1013 8 13 0.00 0.00
3:53 am 03:53 Clear 73 22.8 69 20.6 87 87 Calm 29.91 1013 7 11 0.00 0.00
4:53 am 04:53 Clear 75 23.9 71 21.7 88 88 WNW 6 9 29.91 1013 8 13 0.00 0.00
5:53 am 05:53 Clear 75 23.9 72 22.2 90 90 WNW 6 9 29.91 1013 9 14 0.00 0.00
6:53 am 06:53 Clear 75 23.9 71 21.7 88 88 Calm 29.93 1014 9 14 0.00 0.00
7:53 am 07:53 Sunny 75 23.9 71 21.7 88 88 NNW 5 7 29.94 1014 8 13 0.00 0.00
8:53 am 08:53 Sunny 79 26.1 70 21.1 74 74 N 6 9 29.95 1014 10 16 0.00 0.00
9:53 am 09:53 Sunny 83 28.3 70 21.1 65 65 N 6 9 29.96 1015 10 16 0.00 0.00
10:53 am 10:53 Sunny 87 30.6 70 21.1 57 57 N 8 13 29.97 1015 10 16 0.00 0.00
11:53 am 11:53 Sunny 90 32.2 71 21.7 54 54 NE 6 9 29.96 1014 10 16 0.00 0.00
12:53 pm 12:53 Sunny 90 32.2 71 21.7 54 54 NNW 6 9 29.93 1014 10 16 0.00 0.00
1:53 pm 13:53 Sunny 92 33.3 71 21.7 51 51 NNE 9 15 29.91 1013 10 16 0.00 0.00
2:53 pm 14:53 Sunny 91 32.8 69 20.6 49 49 NNE 12 19 29.90 1012 10 16 0.00 0.00
3:53 pm 15:53 Sunny 91 32.8 66 18.9 44 44 N 17 28 29.90 1013 10 16 0.00 0.00
4:53 pm 16:53 Sunny 89 31.7 63 17.2 42 42 N 15 24 29.90 1013 10 16 0.00 0.00
5:53 pm 17:53 Sunny 86 30 61 16.1 43 43 N 12 19 29.91 1013 10 16 0.00 0.00
6:53 pm 18:53 Sunny 81 27.2 58 14.4 45 45 NNE 10 17 29.93 1014 10 16 0.00 0.00
7:53 pm 19:53 Clear 78 25.6 56 13.3 47 47 N 12 19 29.96 1015 10 16 0.00 0.00
8:53 pm 20:53 Clear 75 23.9 57 13.9 54 54 N 9 15 29.98 1015 10 16 0.00 0.00
9:53 pm 21:53 Clear 72 22.2 58 14.4 61 61 N 7 11 30.00 1016 10 16 0.00 0.00
10:53 pm 22:53 Clear 69 20.6 59 15 70 70 N 7 11 30.01 1016 10 16 0.00 0.00
11:53 pm 23:53 Clear 67 19.4 58 14.4 73 73 N 7 11 30.01 1016 10 16 0.00 0.00

Powered by AerisWeather